Ogallala, NE

9:48 PM MST on November 19, 2017 (GMT -0700)
Searle

Weather History for KOGA - October, 2012

Change the Weather History Date:

Thursday, October 18, 2012

  Actual Average Record
Temperature  
Mean Temperature 48 °F -  
Max Temperature 57 °F 62 °F 85 °F (1958)
Min Temperature 40 °F 31 °F 20 °F (1968)
Degree Days  
Heating Degree Days 16    
Moisture  
Dew Point 12 °F    
Average Humidity 25    
Maximum Humidity 41    
Minimum Humidity 15    
Precipitation  
Precipitation 0.00 in - - ()
Sea Level Pressure  
Sea Level Pressure 29.91 in    
Wind  
Wind Speed 32 mph (NW)    
Max Wind Speed 55 mph    
Max Gust Speed 69 mph    
Visibility 8 miles    
Events      
Averages and records for this station are not official NWS values.
T = Trace of Precipitation, MM = Missing Value Source: NWS Daily Summary

Daily Weather History Graph

Daily Weather History Graph

Search for Another Location

Airport or City:

Trip Planner

Search our weather history database for the weather conditions in past years. The results will help you decide how hot, cold, wet, or windy it might be!

Date:

Astronomy

Oct. 18, 2012 Rise Set
Actual Time 7:02 AM MDT 6:00 PM MDT
Civil Twilight 6:34 AM MDT 6:28 PM MDT
Nautical Twilight 6:02 AM MDT 7:00 PM MDT
Astronomical Twilight 5:30 AM MDT 7:32 PM MDT
Moon 10:48 AM MDT (10/18) 8:35 PM MDT (10/18)
Length of Visible Light 11h 54m
Length of Day
10h 58m
Waxing Crescent, 15% of the Moon is Illuminated
Oct 18
Waxing Crescent
Oct 21
First Quarter
Oct 29
Full
Nov 6
Last Quarter
Nov 13
New

Hourly Weather History & Observations

Time (MDT) Temp. Windchill Dew Point Humidity Pressure Visibility Wind Dir Wind Speed Gust Speed Precip Events Conditions
12:15 AM 45.5 °F 36.7 °F 19.2 °F 35% 29.90 in 10.0 mi NW 25.3 mph 32.2 mph N/A   Clear
12:35 AM 45.0 °F 36.2 °F 18.9 °F 35% 29.91 in 10.0 mi NW 24.2 mph 34.5 mph N/A   Clear
12:55 AM 44.6 °F 35.7 °F 18.5 °F 35% 29.91 in 10.0 mi WNW 24.2 mph 35.7 mph N/A   Clear
1:15 AM 44.1 °F 34.8 °F 18.5 °F 36% 29.91 in 10.0 mi WNW 25.3 mph 28.8 mph N/A   Clear
1:35 AM 43.9 °F 35.0 °F 18.1 °F 36% 29.91 in 10.0 mi WNW 23.0 mph 32.2 mph N/A   Clear
1:55 AM 43.9 °F 34.5 °F 18.1 °F 36% 29.91 in 10.0 mi WNW 25.3 mph 34.5 mph N/A   Clear
2:15 AM 43.5 °F 34.0 °F 18.1 °F 36% 29.91 in 10.0 mi WNW 25.3 mph 39.1 mph N/A   Clear
2:35 AM 43.0 °F 33.3 °F 18.1 °F 37% 29.91 in 10.0 mi WNW 25.3 mph 34.5 mph N/A   Clear
2:55 AM 42.8 °F 32.5 °F 17.6 °F 36% 29.91 in 10.0 mi WNW 28.8 mph 38.0 mph N/A   Clear
3:15 AM 42.8 °F 32.7 °F 17.2 °F 36% 29.91 in 10.0 mi WNW 27.6 mph 36.8 mph N/A   Clear
3:35 AM 42.4 °F 32.4 °F 17.1 °F 36% 29.90 in 10.0 mi WNW 26.5 mph 36.8 mph N/A   Clear
3:55 AM 42.1 °F 31.1 °F 16.7 °F 36% 29.90 in 10.0 mi WNW 31.1 mph 38.0 mph N/A   Clear
4:15 AM 41.9 °F 31.1 °F 16.7 °F 36% 29.90 in 10.0 mi WNW 29.9 mph 40.3 mph N/A   Clear
4:35 AM 41.5 °F 30.6 °F 16.7 °F 37% 29.90 in 10.0 mi WNW 29.9 mph 38.0 mph N/A   Clear
4:55 AM 41.4 °F 30.3 °F 16.7 °F 37% 29.90 in 10.0 mi WNW 29.9 mph 43.7 mph N/A   Clear
5:15 AM 41.0 °F 29.8 °F 17.6 °F 39% 29.90 in 10.0 mi WNW 29.9 mph 39.1 mph N/A   Clear
5:35 AM 41.0 °F 30.2 °F 17.8 °F 39% 29.90 in 10.0 mi WNW 27.6 mph 41.4 mph N/A   Clear
5:55 AM 40.5 °F 29.5 °F 18.1 °F 41% 29.90 in 10.0 mi WNW 27.6 mph 34.5 mph N/A   Clear
6:15 AM 40.6 °F 29.4 °F 18.0 °F 40% 29.90 in 10.0 mi WNW 29.9 mph 39.1 mph N/A   Clear
6:35 AM 41.2 °F 29.5 °F 17.2 °F 38% 29.89 in 10.0 mi NW 33.4 mph 42.6 mph N/A   Clear
6:55 AM 41.2 °F 29.4 °F 17.4 °F 38% 29.89 in 10.0 mi WNW 34.5 mph 43.7 mph N/A   Clear
7:15 AM 41.7 °F 29.6 °F 16.7 °F 36% 29.89 in 10.0 mi NW 38.0 mph 49.5 mph N/A   Clear
7:35 AM 42.4 °F 30.9 °F 16.5 °F 35% 29.89 in 10.0 mi NW 35.7 mph 47.2 mph N/A   Clear
7:55 AM 43.3 °F 32.2 °F 16.0 °F 33% 29.90 in 10.0 mi NW 35.7 mph 48.3 mph N/A   Clear
8:15 AM 44.2 °F 33.0 °F 15.4 °F 31% 29.90 in 10.0 mi NW 39.1 mph 59.8 mph N/A   Clear
8:35 AM 45.5 °F 35.0 °F 14.5 °F 29% 29.91 in 7.0 mi NW 36.8 mph 50.6 mph N/A   Clear
8:55 AM 46.4 °F 35.8 °F 13.6 °F 27% 29.91 in 3.0 mi NW 40.3 mph 57.5 mph N/A   Haze
9:15 AM 47.1 °F - 13.1 °F 25% 29.91 in 2.5 mi NW 40.3 mph 56.4 mph N/A   Haze
9:35 AM 47.8 °F - 12.2 °F 24% 29.90 in 2.5 mi NW 41.4 mph 58.7 mph N/A   Haze
9:55 AM 48.9 °F - 12.0 °F 23% 29.90 in 4.0 mi NW 46.0 mph 55.2 mph N/A   Haze
10:15 AM 50.5 °F - 10.6 °F 20% 29.90 in 3.0 mi NW 42.6 mph 59.8 mph N/A   Haze
10:35 AM 51.3 °F - 8.8 °F 18% 29.90 in 1.8 mi NW 47.2 mph 63.3 mph N/A   Haze
10:55 AM 52.2 °F - 8.8 °F 18% 29.90 in 1.2 mi NW 44.9 mph 63.3 mph N/A   Haze
11:15 AM 52.9 °F - 8.2 °F 17% 29.90 in 1.8 mi NW 47.2 mph 58.7 mph N/A   Haze
11:35 AM 53.6 °F - 8.6 °F 16% 29.90 in 2.5 mi NW 55.2 mph 69.0 mph N/A   Haze
11:55 AM 54.0 °F - 8.6 °F 16% 29.90 in 2.5 mi NW 48.3 mph 58.7 mph N/A   Haze
12:15 PM 54.5 °F - 8.6 °F 16% 29.90 in 2.5 mi NNW 46.0 mph 62.1 mph N/A   Haze
12:35 PM 55.4 °F - 9.1 °F 16% 29.90 in 2.5 mi NW 46.0 mph 61.0 mph N/A   Haze
12:55 PM 56.1 °F - 9.5 °F 16% 29.90 in 4.0 mi NW 47.2 mph 57.5 mph N/A   Haze
1:15 PM 55.9 °F - 9.1 °F 15% 29.89 in 4.0 mi NW 50.6 mph 59.8 mph N/A   Haze
1:35 PM 56.5 °F - 8.6 °F 15% 29.89 in 3.0 mi NW 47.2 mph 57.5 mph N/A   Haze
1:55 PM 56.5 °F - 9.3 °F 15% 29.89 in 4.0 mi NNW 44.9 mph 57.5 mph N/A   Haze
2:15 PM 57.2 °F - 9.3 °F 15% 29.88 in 4.0 mi NW 44.9 mph 58.7 mph N/A   Haze
2:35 PM 57.4 °F - 9.5 °F 15% 29.89 in 5.0 mi NW 47.2 mph 59.8 mph N/A   Haze
2:55 PM 57.4 °F - 9.5 °F 15% 29.89 in 7.0 mi NW 43.7 mph 54.1 mph N/A   Clear
3:15 PM 57.7 °F - 10.2 °F 15% 29.90 in 7.0 mi NNW 41.4 mph 55.2 mph N/A   Clear
3:35 PM 57.4 °F - 11.1 °F 16% 29.91 in 10.0 mi NNW 41.4 mph 56.4 mph N/A   Clear
3:55 PM 57.2 °F - 9.9 °F 15% 29.92 in 10.0 mi NW 38.0 mph 49.5 mph N/A   Clear
4:15 PM 57.0 °F - 10.0 °F 15% 29.92 in 10.0 mi NW 36.8 mph 50.6 mph N/A   Clear
4:35 PM 56.3 °F - 10.6 °F 16% 29.93 in 10.0 mi NW 35.7 mph 51.8 mph N/A   Clear
4:55 PM 55.9 °F - 10.0 °F 16% 29.93 in 10.0 mi NNW 31.1 mph 47.2 mph N/A   Clear
5:15 PM 55.4 °F - 9.3 °F 16% 29.93 in 10.0 mi NW 38.0 mph 46.0 mph N/A   Clear
5:35 PM 54.5 °F - 9.7 °F 17% 29.94 in 10.0 mi NNW 31.1 mph 38.0 mph N/A   Clear
5:55 PM 53.6 °F - 8.4 °F 16% 29.94 in 10.0 mi NW 34.5 mph 44.9 mph N/A   Clear
6:15 PM 52.3 °F - 8.6 °F 17% 29.95 in 10.0 mi NNW 26.5 mph 34.5 mph N/A   Clear
6:35 PM 51.8 °F - 8.1 °F 17% 29.95 in 10.0 mi NNW 25.3 mph 36.8 mph N/A   Clear
6:55 PM 51.1 °F - 7.5 °F 17% 29.95 in 10.0 mi NNW 24.2 mph 32.2 mph N/A   Clear
7:15 PM 50.4 °F - 7.7 °F 18% 29.96 in 10.0 mi NNW 23.0 mph 33.4 mph N/A   Clear
7:35 PM 49.6 °F - 7.5 °F 18% 29.96 in 10.0 mi NNW 21.9 mph 29.9 mph N/A   Clear
7:55 PM 49.3 °F - 7.0 °F 18% 29.96 in 10.0 mi NNW 27.6 mph 33.4 mph N/A   Clear
8:15 PM 49.1 °F - 6.8 °F 18% 29.96 in 10.0 mi NNW 28.8 mph 35.7 mph N/A   Clear
8:35 PM 48.6 °F - 6.8 °F 18% 29.96 in 10.0 mi NNW 27.6 mph 33.4 mph N/A   Clear
8:55 PM 48.6 °F - 6.8 °F 18% 29.96 in 10.0 mi NNW 24.2 mph 34.5 mph N/A   Clear
9:15 PM 46.9 °F - 7.0 °F 20% 29.97 in 10.0 mi NNW 21.9 mph 27.6 mph N/A   Clear
9:35 PM 46.4 °F 39.0 °F 7.7 °F 21% 29.97 in 10.0 mi NNW 19.6 mph 26.5 mph N/A   Clear
9:55 PM 45.7 °F 37.8 °F 7.9 °F 21% 29.96 in 10.0 mi NNW 20.7 mph 25.3 mph N/A   Clear